Theta_e
319 319 320 321 323 323 323 322 322 323 324 325 328 328 328 329 327 322 313 323 324 328 323 318 320 316 312 307 312 311 301 300 303 301 304 307 307 310 314 313 314 316 318 323 327
319 320 319 320 322 324 323 323 323 323 324 324 327 328 327 328 323 317 325 334 328 329 315 314 312 312 307 305 307 304 302 303 309 308 303 307 309 309 308 311 311 315 324 326 326
319 320 319 320 321 321 323 323 322 323 324 323 324 326 325 326 314 315 330 333 329 327 321 316 316 312 304 305 304 305 299 310 311 309 305 307 307 311 309 308 313 313 320 322 323
318 319 319 320 320 319 322 322 322 322 323 322 322 324 323 320 298 318 328 333 328 320 317 314 310 306 304 301 306 299 305 309 312 305 304 305 309 308 310 310 316 318 324 322 321
317 318 318 319 319 318 320 322 321 321 322 323 321 324 319 310 309 320 322 332 324 318 313 312 310 306 302 303 304 301 303 307 309 304 303 307 307 306 308 308 310 320 323 320 321
317 317 317 317 318 317 319 321 321 320 322 322 320 322 314 302 320 319 321 324 321 320 314 313 311 311 306 306 303 305 304 303 305 303 302 301 304 307 309 310 313 320 320 320 321
317 316 317 317 317 317 319 319 318 319 321 321 320 317 310 307 322 318 319 319 322 320 315 316 316 312 309 305 309 305 301 302 301 301 300 301 298 300 308 310 311 317 318 320 321
316 316 316 316 316 317 317 317 317 317 319 319 319 314 303 318 323 316 319 316 315 318 316 321 318 315 311 310 306 303 301 295 300 301 301 299 292 300 303 308 307 312 314 318 320
316 315 316 316 316 316 317 317 317 317 315 316 312 308 300 320 314 317 318 312 309 311 314 321 318 311 309 303 299 300 295 295 297 301 299 297 294 301 303 306 306 310 312 316 317
315 315 316 316 316 316 315 315 316 315 315 314 311 303 304 303 312 316 318 313 307 306 307 307 304 302 304 301 292 295 295 297 297 298 298 294 295 301 302 304 304 307 310 314 315
315 315 315 315 315 314 313 309 300 299 304 299 299 299 303 310 314 312 315 309 307 304 297 300 297 295 301 303 303 302 299 298 301 305 297 296 296 300 300 300 301 303 307 310 315
314 314 315 315 315 315 310 300 300 305 295 301 301 303 305 310 302 307 312 304 301 296 297 294 293 300 304 303 301 301 300 298 300 299 299 298 297 301 302 299 302 303 304 309 312
314 314 314 314 313 310 305 303 311 310 293 295 301 299 303 306 301 302 308 304 299 293 295 294 296 301 300 300 299 299 298 300 300 295 296 293 293 299 304 303 301 303 304 306 310
314 313 313 313 306 306 301 306 310 309 286 287 292 298 302 304 297 308 308 305 296 293 295 295 296 297 297 294 300 295 303 303 299 293 291 295 291 299 302 302 299 300 301 303 306
313 313 313 311 302 300 304 309 309 303 270 289 294 308 303 298 300 302 309 301 291 290 292 289 291 291 292 295 300 298 297 298 298 296 294 293 287 294 302 300 302 300 300 302 304
313 312 312 306 305 305 309 308 303 283 270 287 296 295 294 297 298 301 301 300 298 291 290 289 293 293 294 296 298 298 294 297 294 294 286 293 290 290 297 300 303 303 301 301 302
312 311 308 305 299 308 308 300 281 274 288 283 289 293 293 293 294 295 290 287 287 283 285 285 286 291 293 291 292 293 290 282 282 282 283 294 288 293 297 298 301 303 301 302 302
311 310 307 306 308 308 302 288 272 277 284 291 291 291 290 293 293 292 289 286 293 293 286 284 281 287 292 292 290 287 288 285 280 280 281 283 285 291 299 299 298 297 297 297 301
310 305 302 306 309 306 293 278 276 282 284 288 288 284 286 292 289 287 288 288 292 294 288 286 284 291 292 293 294 288 285 293 284 280 280 283 286 292 293 293 293 294 295 294 294
303 300 299 307 308 301 287 280 283 290 289 287 281 286 283 286 287 285 288 295 294 296 297 291 282 289 289 292 292 289 293 285 285 276 276 281 282 286 290 292 293 292 294 295 296
300 292 300 307 304 293 280 282 286 292 291 287 284 284 287 287 288 286 288 294 298 296 297 293 287 283 288 286 287 288 286 286 289 286 280 276 280 290 292 293 291 292 293 293 293
294 285 301 305 287 287 283 286 290 287 290 289 289 286 285 285 285 287 289 293 299 298 293 295 287 280 284 289 292 291 288 289 284 282 280 281 283 290 291 291 292 292 293 292 293
289 291 302 300 282 283 287 286 288 287 288 287 285 288 289 286 283 287 291 298 299 297 294 295 288 280 282 286 287 286 288 289 289 286 280 279 283 290 289 290 292 292 292 292 291
290 284 290 293 292 286 283 284 284 290 289 289 287 290 287 285 288 286 287 295 299 298 299 296 289 286 282 285 286 284 287 289 288 281 282 283 284 287 288 289 290 291 292 292 293
286 285 286 282 284 286 286 285 283 283 288 290 286 287 286 283 285 285 289 291 297 298 294 294 285 287 285 289 289 288 288 289 287 288 284 287 287 289 290 290 291 293 293 293 294
285 285 286 286 288 286 286 284 283 284 286 285 285 287 287 284 286 285 286 291 291 293 292 295 285 284 282 286 289 286 290 290 289 289 290 290 289 294 293 293 291 292 293 293 293
292 291 290 287 285 284 284 284 285 287 287 288 287 286 286 288 291 292 292 290 290 292 289 291 286 285 281 285 287 283 287 289 290 291 291 287 292 292 290 292 293 294 294 293 293
Wind_Speed
17 16 14 13 12 12 11 11 10 8 7 7 9 7 5 3 7 7 11 8 5 10 12 16 6 6 11 5 2 4 4 10 12 9 10 5 6 3 5 7 4 4 6 11 20
18 16 16 15 11 12 11 10 9 8 9 7 7 5 4 5 6 10 7 8 15 12 8 14 11 8 3 7 4 4 5 10 12 6 9 8 8 7 4 9 4 8 13 18 18
18 16 15 14 12 11 12 11 9 7 8 6 6 4 4 6 3 8 20 12 12 13 5 6 15 13 3 3 8 4 10 9 17 2 5 6 7 8 5 7 8 12 18 17 19
20 18 16 14 12 12 12 12 10 8 8 5 3 5 7 4 9 5 10 18 17 10 10 12 7 9 7 4 8 11 11 17 15 3 1 5 4 7 9 5 11 14 21 16 19
22 19 17 15 12 12 13 14 10 10 10 8 2 7 5 6 9 4 6 10 15 15 13 9 12 7 10 9 5 13 16 9 12 4 5 6 8 7 10 4 1 20 20 17 18
23 20 18 16 12 12 12 13 10 7 9 10 4 11 5 19 3 5 9 10 13 15 15 13 10 7 8 6 7 5 13 15 7 6 5 5 6 10 9 9 10 17 16 15 17
24 22 19 17 14 11 9 8 9 6 9 10 8 3 9 11 2 7 9 14 12 15 17 14 10 6 10 7 7 3 8 17 9 9 6 5 6 6 9 11 10 14 13 15 16
25 24 21 19 15 12 11 9 7 2 5 8 8 5 7 3 5 7 3 5 6 2 4 6 12 7 3 9 7 8 3 6 8 10 6 9 8 15 11 12 12 11 11 14 16
27 24 23 21 17 13 11 8 8 6 5 4 4 5 6 6 8 10 9 10 7 4 3 2 15 5 6 8 5 5 6 13 8 15 5 9 6 10 15 13 11 12 11 13 12
28 26 23 22 20 16 12 8 9 5 6 6 4 4 2 7 4 10 6 13 6 6 2 3 1 6 6 11 16 9 13 7 15 9 9 8 12 5 12 13 13 14 13 14 14
30 26 25 22 21 20 15 6 5 5 10 9 8 7 4 3 7 10 8 8 6 6 10 6 7 13 20 22 13 9 14 21 15 13 12 16 13 16 9 7 9 9 12 13 16
30 28 26 24 23 22 12 8 10 3 6 20 15 13 9 5 4 11 17 13 8 13 8 5 18 7 9 17 21 22 13 20 3 3 6 8 17 15 12 10 14 12 12 16 12
32 30 28 25 22 16 14 17 6 1 3 6 15 15 7 9 8 12 10 13 7 12 18 12 1 9 5 7 19 22 22 18 11 4 3 7 12 14 15 12 12 11 10 10 15
33 31 30 27 15 12 14 14 6 3 3 6 9 9 16 5 9 13 12 8 4 8 16 4 2 10 11 7 13 19 15 18 16 10 5 11 8 17 18 15 13 14 12 10 10
36 33 33 28 10 16 15 13 7 0 3 7 10 3 12 19 12 9 17 3 14 12 6 6 11 12 10 12 10 13 7 11 12 11 4 4 4 7 10 21 22 16 16 14 11
38 36 35 17 11 18 16 15 6 4 12 5 6 9 13 15 14 8 8 3 2 8 5 4 3 3 6 4 4 3 4 5 2 2 5 13 14 7 11 15 19 15 16 16 13
40 39 30 15 16 19 18 10 6 8 4 7 5 5 14 13 18 14 7 5 10 9 8 3 3 1 7 6 6 2 14 2 2 5 6 17 13 9 4 1 9 16 16 15 13
40 38 24 12 16 23 13 9 8 9 7 4 4 5 9 11 9 17 16 11 15 7 7 11 6 11 11 7 9 9 10 5 6 5 3 2 12 7 11 6 5 5 8 4 13
41 16 16 15 22 17 16 12 11 5 17 12 8 4 6 7 4 5 17 17 11 11 12 11 4 7 16 7 10 6 11 3 4 4 4 7 5 7 5 7 4 5 4 5 2
17 16 17 24 22 15 12 12 5 4 5 6 7 8 8 8 7 10 18 20 16 17 9 7 10 5 3 7 2 3 2 4 5 5 5 4 3 5 9 10 8 7 8 8 7
11 11 17 24 14 13 14 8 9 11 9 5 8 5 2 4 13 8 12 12 18 19 5 6 6 6 8 8 13 7 5 7 5 5 5 4 8 6 8 9 12 9 7 7 5
6 5 21 18 13 11 13 11 11 14 7 5 2 4 5 3 1 6 13 13 26 23 14 8 7 6 3 7 5 5 7 9 3 5 2 2 3 2 8 8 10 8 7 6 6
8 7 15 18 10 14 9 12 12 10 10 9 9 8 9 4 2 5 14 24 29 21 17 11 4 9 6 5 4 7 8 9 11 7 6 5 5 0 5 6 6 9 7 7 7
7 11 8 9 3 15 13 18 14 6 8 7 4 4 4 6 7 7 9 9 24 24 17 12 4 9 13 7 14 13 14 18 14 4 3 6 2 5 4 7 8 7 7 7 7
2 6 4 16 12 18 17 14 18 10 10 8 7 10 8 7 5 8 13 17 18 24 6 6 5 4 4 9 10 17 19 22 19 17 8 5 7 9 10 9 10 9 8 7 6
6 9 1 14 16 14 22 15 19 18 13 10 12 14 14 13 14 7 2 10 15 9 7 2 6 5 2 1 11 16 22 21 23 26 22 12 12 5 7 7 7 9 8 7 6
2 3 7 18 17 11 18 18 15 13 13 13 16 11 16 20 11 10 9 13 23 22 21 18 11 13 7 5 7 4 26 30 29 31 31 25 21 6 3 8 9 7 4 6 7
Wind_Direction
238 240 241 244 242 228 235 260 268 273 282 309 288 276 280 250 123 168 205 236 176 151 122 117 77 13 344 286 266 307 258 236 241 205 238 122 188 11 331 111 112 86 40 118 134
232 233 238 238 240 233 233 242 258 268 266 299 297 253 263 179 204 217 209 243 149 159 150 150 136 95 4 307 256 208 232 241 249 203 212 177 184 159 151 138 122 98 90 119 138
222 229 231 232 232 238 233 236 243 258 257 269 307 221 156 172 295 241 199 205 167 178 177 95 117 106 107 10 286 232 240 248 263 312 37 172 198 156 189 187 182 169 146 147 156
212 219 220 231 222 234 241 231 236 251 254 239 312 204 167 201 227 92 205 185 166 166 133 131 116 116 136 205 246 275 265 249 268 126 98 226 195 188 198 172 198 162 150 154 172
207 210 212 216 218 228 233 218 221 245 252 231 3 179 167 222 236 84 61 168 176 167 161 164 150 140 157 153 277 285 271 261 274 154 222 272 204 192 212 144 90 136 146 166 180
204 202 204 203 205 221 229 222 223 248 239 218 191 185 221 237 202 155 159 164 206 201 188 166 180 135 122 124 152 302 320 290 248 217 212 203 235 171 214 164 128 139 157 169 184
203 199 196 194 195 206 203 203 219 244 228 202 186 192 238 234 66 167 168 178 202 211 211 181 142 169 131 127 135 334 324 316 225 224 212 213 223 217 233 145 167 158 168 175 188
204 198 189 186 183 191 193 191 197 206 202 203 183 199 249 283 155 173 121 124 66 321 340 206 160 110 147 117 93 220 185 260 249 204 227 169 228 223 224 162 178 178 177 180 187
202 197 187 180 172 171 168 170 180 183 159 149 190 184 239 103 202 187 163 160 102 57 27 109 154 146 127 143 124 199 201 217 286 193 166 186 234 232 191 174 188 187 190 181 185
199 194 186 177 165 158 149 148 154 148 188 190 250 188 229 216 186 187 212 149 130 119 208 161 182 162 152 164 216 203 210 218 207 205 199 199 255 279 181 179 195 195 195 184 190
194 190 184 176 163 157 139 140 169 200 200 201 193 240 105 136 124 186 163 128 129 176 189 158 202 209 199 194 218 204 205 218 213 216 200 219 228 243 182 187 207 211 194 194 194
189 185 181 173 166 163 167 195 189 19 199 219 242 214 243 149 208 202 162 166 167 187 130 143 222 174 175 216 215 236 253 216 190 278 248 232 240 235 217 203 201 209 209 196 189
181 178 176 170 164 169 186 198 86 357 275 226 213 226 177 169 219 209 211 162 174 161 172 200 101 217 131 242 206 215 230 224 207 146 327 330 269 242 233 213 200 210 222 202 185
175 172 170 159 161 172 187 191 122 193 262 237 197 223 194 198 254 193 217 174 136 184 163 197 124 191 186 220 219 211 215 237 177 153 200 178 275 220 220 223 197 198 204 224 197
170 166 163 160 143 177 166 132 157 256 244 199 166 141 168 181 115 210 189 228 159 151 162 137 164 165 152 208 210 225 63 285 189 178 141 183 265 238 228 218 213 201 196 206 204
166 162 160 166 155 170 145 139 156 140 233 184 126 187 174 197 181 112 186 65 121 117 61 81 46 262 109 90 248 21 30 2 210 146 218 191 183 221 219 201 209 209 203 202 204
159 160 160 166 166 155 140 148 128 209 169 182 173 191 203 192 190 163 151 187 156 126 159 114 107 127 98 102 22 91 119 161 148 239 235 177 203 214 189 214 177 200 203 209 203
156 156 165 163 153 145 153 154 195 190 199 101 128 182 217 196 191 179 160 194 219 178 137 165 187 179 156 185 162 180 181 191 172 202 162 345 224 240 225 244 214 220 128 104 209
154 155 156 161 153 154 156 185 198 183 188 153 120 137 209 217 127 164 190 179 197 171 156 167 130 166 167 134 152 162 221 159 357 230 89 205 260 317 223 230 186 185 156 163 241
156 153 164 159 157 159 164 193 195 124 93 205 163 167 189 199 185 189 196 192 181 199 192 164 116 156 86 90 335 192 5 184 211 230 237 230 261 231 190 192 189 192 191 194 217
151 153 159 161 155 164 192 193 167 130 123 140 201 160 184 212 203 210 204 179 188 183 124 138 113 143 164 175 169 159 202 204 254 239 197 144 248 211 188 163 159 169 166 153 164
127 133 157 154 158 185 197 178 195 216 168 89 124 148 184 154 161 246 215 216 200 184 166 203 119 133 114 73 178 183 182 199 240 258 289 253 258 2 102 113 124 146 167 167 166
112 122 155 164 163 175 150 191 215 188 200 150 203 211 160 174 248 236 227 217 192 190 171 184 131 115 120 106 86 196 197 212 250 292 217 154 250 331 83 110 132 143 162 178 189
126 137 143 173 144 157 160 189 192 196 186 138 189 139 148 196 180 278 298 263 190 188 193 146 152 187 194 180 133 185 196 208 217 228 217 231 119 232 182 139 130 135 154 177 198
91 114 121 168 201 167 179 169 189 184 197 141 201 214 194 228 217 240 275 260 188 185 147 119 139 118 5 135 151 175 184 199 219 239 248 207 250 209 199 183 174 168 176 182 200
114 146 110 153 153 170 176 192 190 199 166 193 215 193 212 227 210 189 332 231 195 153 129 190 174 126 70 336 163 178 177 193 214 227 236 250 229 244 196 151 175 186 190 204 208
109 70 120 153 162 174 198 192 191 187 218 212 204 224 221 225 248 257 220 238 280 189 176 179 158 170 181 147 98 199 196 197 208 212 212 214 214 166 172 184 202 217 207 206 212